SCP
0 0 0 0 0 0 0 0 0 0 -0 0 0 0 0 0 0 0 0 0 0 0 0 0 0 0 0 0 0 0 0 0 0 -0 0 0 0 0 0 -0 -0 -0 0 0
0 0 0 0 0 0 0 0 0 0 0 0 0 0 -0 0 0 0 0 0 0 -0 0 0 0 0 0 0 0 0 0 0 0 -0 -0 -0 0 0 0 -0 -0 0 0 0
0 0 0 0 0 0 0 0 0 0 0 0 0 0 0 0 0 0 0 0 0 -0 -0 0 0 1 0 0 0 1 0 0 0 -0 -0 -0 -0 -0 -0 -0 -0 0 0 1
0 0 0 0 0 0 0 0 0 0 0 0 0 0 0 0 0 1 1 0 0 -0 -0 -0 0 0 0 0 0 0 0 0 0 -0 -0 -0 -0 -0 -0 -0 -0 0 0 1
0 0 0 0 0 0 0 0 0 0 0 0 0 0 0 0 0 0 1 0 1 0 0 0 0 0 0 0 0 0 0 0 -0 -0 -0 -0 -0 -0 -0 -0 -0 -0 0 1
0 0 0 0 0 0 0 0 0 0 0 0 0 0 1 0 0 0 0 0 0 1 0 0 0 0 -0 -0 -0 0 0 0 -0 -0 -0 -0 0 -0 -0 -0 -0 -0 0 1
0 0 0 0 0 0 0 0 0 0 0 0 0 0 0 0 0 0 0 0 1 0 0 0 0 0 0 -0 -0 0 0 0 -0 0 0 0 0 -0 -0 0 -0 -0 0 0
0 0 0 0 0 0 0 0 0 0 0 0 0 0 0 0 0 0 0 0 1 2 1 1 1 0 0 0 0 0 0 0 0 0 1 1 0 -0 0 -0 -0 0 0 0
0 0 0 0 0 0 0 0 0 0 0 0 0 0 0 0 0 0 0 1 1 1 2 2 1 1 0 0 0 0 0 0 1 1 1 0 0 -0 0 -0 0 0 0 0
0 0 0 0 0 0 0 0 0 0 0 0 0 0 0 0 0 0 0 0 0 1 2 3 3 3 1 0 0 -0 0 1 1 1 1 0 0 0 0 0 0 1 0 0
0 0 0 0 0 0 0 0 0 0 0 0 0 0 0 0 0 0 0 0 0 0 1 3 2 3 3 2 0 0 1 1 1 1 0 1 1 1 1 0 1 1 0 0
0 0 0 0 0 0 0 0 0 0 0 0 0 0 0 0 0 0 0 0 0 0 0 0 1 2 2 2 1 1 2 2 2 1 1 1 1 1 0 1 1 0 0 0
0 0 0 0 0 0 0 0 0 0 0 0 0 0 0 0 0 0 0 0 0 0 0 0 0 0 0 3 4 2 2 2 2 1 1 1 0 0 0 0 0 0 0 0
0 0 0 0 0 0 0 0 0 0 0 0 0 0 0 0 0 0 0 0 0 0 0 0 0 0 0 1 4 3 3 3 2 2 1 1 1 1 1 1 0 0 0 0
0 0 0 0 0 0 0 0 0 0 0 0 0 0 0 0 0 0 0 0 0 0 0 0 0 0 0 0 2 5 3 2 3 2 2 1 1 1 1 1 1 0 0 0
0 0 0 0 0 0 0 0 0 0 0 0 0 0 0 0 0 0 0 0 0 0 0 0 0 0 0 0 0 2 5 3 3 2 1 1 1 1 2 2 1 0 0 0
-0 0 0 0 0 0 0 0 0 0 0 0 0 -0 0 0 0 0 0 0 0 0 0 0 0 0 0 0 0 0 1 4 3 4 2 2 2 2 2 2 1 0 0 0
0 0 0 0 0 0 0 0 0 0 0 0 0 0 -0 -0 0 0 0 0 0 0 0 0 0 0 0 0 0 0 0 0 3 3 2 1 1 2 2 1 1 0 0 0
0 0 0 0 0 0 0 0 0 0 0 0 0 0 0 0 0 0 0 0 0 0 0 0 0 0 0 0 0 0 0 0 1 2 2 2 2 2 2 2 1 0 0 0
0 0 0 0 0 0 0 0 0 0 0 0 0 0 0 0 0 0 0 -0 0 0 0 0 0 0 0 0 0 0 0 0 0 0 1 1 1 2 1 1 1 1 0 0
0 0 0 0 0 0 0 0 0 0 0 0 0 0 0 -0 -0 0 0 0 0 0 0 0 0 0 0 0 0 0 0 0 0 0 0 0 1 1 1 0 0 0 0 0
0 0 0 0 0 0 0 0 0 0 0 0 0 0 0 0 0 0 -0 0 0 0 0 0 0 0 0 0 0 0 0 0 0 0 0 0 0 0 0 0 0 0 0 0
0 0 -0 -0 -0 -0 0 0 0 0 0 0 0 0 0 0 0 0 0 0 0 0 0 0 0 0 0 0 0 0 0 0 0 0 0 0 0 0 0 0 0 0 0 0
0 0 -0 -0 -0 -0 0 -0 -0 -0 0 0 0 0 0 0 0 0 0 0 0 0 0 0 0 0 0 0 0 0 0 0 0 0 0 0 0 0 0 0 0 0 0 0
0 0 0 0 0 -0 -0 -0 -0 -0 -0 -0 -0 0 0 -0 0 0 0 0 0 0 0 0 0 0 0 0 0 0 0 0 0 0 0 0 0 0 0 0 0 0 0 0
0 0 0 0 0 0 0 -0 -0 -0 -0 -0 -0 -0 -0 -0 0 0 0 0 0 0 0 0 0 0 0 0 0 0 0 0 0 0 0 0 0 0 0 0 0 0 0 0
0 0 0 0 0 0 0 0 0 0 0 0 0 0 0 0 -0 -0 -0 -0 -0 0 0 0 0 0 0 0 0 0 0 0 0 0 0 0 0 0 0 0 0 0 0 0
Wind_Speed_500mb
18 24 16 16 18 9 17 15 29 29 20 27 24 27 37 34 27 19 29 40 53 58 56 60 61 58 56 57 61 61 63 65 61 53 54 51 46 38 36 36 32 29 32 28
12 19 13 19 18 18 16 11 17 12 14 11 36 28 27 36 29 18 30 39 49 58 59 57 57 54 50 53 54 54 56 58 61 60 55 49 46 44 39 37 30 29 29 23
9 8 11 16 21 16 12 9 6 13 5 27 29 31 37 45 33 19 11 22 38 51 55 49 47 47 49 48 50 53 51 52 50 52 50 50 47 48 43 37 31 29 26 22
8 4 15 9 10 2 21 15 12 13 20 25 34 38 36 22 26 25 20 9 18 42 50 57 46 41 44 47 49 50 51 52 51 51 49 49 50 48 43 35 34 28 26 21
9 17 4 9 7 5 1 8 20 22 25 32 38 31 9 31 27 25 27 23 13 21 47 51 51 47 44 48 50 51 54 56 54 51 51 51 48 45 40 36 34 28 25 20
6 14 21 10 12 10 5 10 26 28 28 33 34 12 6 40 36 28 22 20 11 11 22 42 49 53 51 54 54 55 56 56 51 48 49 46 43 41 36 34 30 29 24 21
19 11 4 14 20 5 14 6 29 29 29 27 10 13 30 28 24 22 21 14 5 5 13 21 32 44 51 54 55 52 50 49 47 45 43 42 42 39 36 35 33 30 26 24
13 12 15 27 6 9 8 12 19 25 25 20 19 21 21 24 27 26 25 17 6 4 19 27 32 36 42 45 49 50 51 49 48 45 44 43 40 39 37 35 34 34 33 30
10 3 8 14 21 8 7 9 17 20 25 24 29 32 30 30 30 29 29 29 21 13 16 27 34 36 40 46 47 49 51 48 41 39 39 37 37 37 38 38 40 39 37 38
9 6 13 24 20 17 15 17 19 22 29 41 38 37 39 38 39 36 31 33 30 24 25 25 29 36 35 39 45 45 44 41 37 35 36 37 38 39 39 40 41 42 43 46
3 8 10 17 25 21 18 21 27 31 37 43 45 45 43 45 47 46 36 33 31 30 34 25 20 32 35 39 40 42 38 36 35 36 36 36 38 39 40 37 37 33 40 41
4 9 8 14 20 23 20 22 28 26 32 39 42 43 43 53 52 47 47 41 39 35 33 30 26 18 25 34 36 37 39 39 36 34 36 37 35 35 34 31 30 30 29 24
4 3 5 14 12 22 23 24 29 30 29 36 41 44 47 48 48 49 47 47 48 46 42 37 34 20 22 27 31 31 29 30 30 29 26 27 29 32 33 34 33 32 33 38
15 11 12 26 15 23 18 23 30 31 30 34 37 41 46 48 45 47 49 46 41 38 40 38 29 31 22 26 25 25 25 22 19 17 17 17 20 25 30 33 37 40 39 45
25 23 17 14 20 23 18 13 17 31 32 30 33 37 40 45 46 46 43 40 38 40 33 36 34 29 28 30 27 23 17 15 15 12 11 10 14 20 26 32 38 35 41 48
23 25 23 24 22 24 25 24 20 20 24 25 26 29 31 32 34 38 41 42 44 46 43 36 26 34 31 26 20 22 17 10 8 7 3 2 2 7 11 22 29 34 44 50
26 30 25 22 21 19 22 21 21 18 14 18 18 20 16 19 22 27 34 36 37 37 37 36 35 31 34 19 7 8 12 7 9 12 9 8 9 14 16 19 27 35 48 54
29 23 21 18 15 14 17 21 19 18 21 18 16 16 16 18 22 24 25 26 24 23 29 33 34 34 28 21 12 9 4 4 5 7 14 16 15 22 25 34 42 42 36 46
39 43 38 33 24 19 19 21 21 18 16 19 21 21 20 21 20 21 22 24 23 20 22 24 25 26 24 20 16 11 3 3 4 10 13 13 16 18 29 35 39 40 44 47
44 46 47 45 44 43 40 38 34 30 27 22 21 20 20 22 22 20 23 26 31 30 28 27 27 19 17 17 17 14 12 5 4 2 9 12 19 17 22 25 30 35 37 44
42 44 48 50 51 50 47 42 40 44 40 35 32 34 35 32 26 24 23 24 26 23 21 20 19 20 17 16 17 19 18 15 13 11 11 9 8 13 19 21 25 30 31 36
25 28 32 37 42 46 51 51 47 43 40 40 40 38 39 43 40 31 36 34 32 32 26 25 24 22 20 20 19 18 18 18 17 16 13 12 14 11 20 26 28 31 31 34
15 15 15 19 26 30 34 42 45 48 48 48 48 46 45 44 44 40 39 45 39 34 34 34 35 29 24 22 20 20 19 18 18 19 21 19 17 25 26 26 37 40 41 35
8 11 11 10 12 14 18 24 28 31 34 37 39 42 43 42 41 46 41 42 39 35 32 34 35 35 33 29 26 24 23 22 21 20 20 22 23 23 27 35 42 37 45 50
17 18 19 18 15 7 6 8 13 16 20 24 29 34 34 36 39 42 46 47 46 46 40 38 34 31 33 32 32 32 30 30 29 26 23 23 25 25 26 30 30 37 44 41
14 17 16 13 14 16 6 6 8 9 10 12 14 21 25 27 33 38 41 43 45 50 44 41 39 36 31 31 30 27 28 29 28 32 28 26 23 28 27 24 26 33 39 48
16 16 14 13 12 12 16 19 21 20 14 9 11 17 19 21 25 32 38 44 47 47 47 43 37 42 41 37 32 29 27 25 27 30 31 32 32 28 29 29 21 22 30 42
Wind_Direction_500mb
281 281 270 268 273 252 222 238 229 237 225 268 316 319 313 315 315 230 210 196 197 202 203 211 213 212 217 218 217 220 220 219 217 220 223 224 226 233 235 239 249 263 273 281
287 291 267 263 263 259 250 260 263 264 262 3 319 318 340 354 339 267 220 205 202 203 203 206 208 207 209 215 215 216 219 217 216 222 226 225 223 225 227 234 243 254 264 267
256 343 306 255 248 231 130 78 296 239 350 334 318 330 333 336 339 360 274 233 216 214 209 206 207 210 210 209 211 209 207 210 212 215 216 218 218 222 224 229 235 242 249 250
270 297 231 73 53 190 124 73 14 320 328 324 308 304 305 338 337 334 359 332 234 227 229 222 208 205 205 208 206 203 201 202 202 207 210 214 216 218 222 223 228 233 236 237
249 213 16 226 32 61 305 95 24 347 340 334 322 311 221 346 347 339 335 333 313 245 229 231 221 210 202 204 201 199 197 196 197 201 207 210 212 213 215 215 224 227 229 226
284 227 212 88 341 347 272 189 11 354 343 337 331 218 81 346 346 340 333 322 328 276 217 218 223 221 204 200 198 194 191 189 192 198 206 207 205 206 206 216 221 221 221 215
235 268 224 11 325 224 198 71 339 346 346 342 348 330 315 340 353 1 356 340 328 239 193 193 207 217 207 195 189 183 180 184 188 193 193 193 197 201 208 215 220 219 214 208
216 239 217 6 155 222 21 344 347 358 9 10 2 5 4 4 15 22 32 34 59 172 192 189 192 196 197 186 176 176 172 178 180 181 188 195 200 206 214 218 221 220 212 202
235 1 58 64 78 49 2 356 13 26 31 47 32 30 24 25 35 40 45 47 59 91 163 172 172 177 182 178 171 174 167 174 182 189 197 203 210 215 220 223 224 221 214 208
188 178 101 75 74 51 45 65 63 54 56 59 50 36 32 34 41 54 59 62 67 87 121 144 165 172 176 177 178 180 179 182 189 197 204 209 215 222 228 229 228 222 217 209
260 164 217 62 44 34 49 70 72 63 66 66 59 46 36 34 44 49 58 67 70 80 96 111 139 162 170 173 178 179 180 188 194 201 205 212 218 224 230 232 235 236 225 221
146 8 351 51 21 24 33 40 64 59 59 63 62 53 44 41 42 49 49 50 57 64 76 87 94 101 151 163 171 174 177 183 191 198 207 215 223 228 227 227 221 216 224 229
49 331 21 9 46 22 26 46 62 57 61 69 63 58 50 45 43 47 51 47 48 53 56 69 94 142 133 147 154 163 177 183 188 199 207 211 212 215 218 212 206 194 206 217
52 116 62 37 12 17 26 44 56 57 60 68 65 60 53 47 43 44 44 42 40 48 56 63 67 72 105 127 140 149 153 158 163 173 182 195 205 209 217 222 207 194 202 219
61 66 58 34 35 34 33 43 42 48 45 58 60 56 51 46 44 43 45 46 42 45 47 64 65 70 80 116 129 130 136 150 155 164 179 201 215 225 220 227 224 214 212 214
64 57 46 36 20 26 30 30 35 25 36 36 54 61 58 52 47 43 43 42 43 41 36 42 49 43 57 91 113 132 125 125 140 145 135 89 340 244 247 235 239 236 226 216
54 45 41 32 22 16 20 31 29 17 19 31 44 53 57 59 51 43 39 38 41 43 40 37 37 37 49 55 86 125 160 161 186 212 204 213 223 255 250 258 260 246 237 225
51 55 44 36 32 24 26 22 29 31 30 32 41 53 40 43 44 42 38 29 26 34 38 41 40 34 30 26 30 57 97 190 224 238 234 243 235 244 257 259 252 247 241 237
54 57 57 58 58 53 48 35 35 40 46 43 43 44 34 37 36 30 24 17 14 17 18 28 35 35 33 28 20 13 57 37 239 234 250 258 248 255 252 258 262 259 251 241
60 63 66 65 63 61 58 55 54 53 50 49 49 45 40 32 24 20 15 14 13 4 358 357 11 355 1 14 20 27 18 349 257 304 307 289 269 250 257 268 264 262 256 260
64 63 65 64 63 61 57 54 53 54 52 52 53 49 43 33 26 18 15 11 3 1 0 355 341 336 333 336 348 353 3 7 356 337 272 288 325 289 273 279 267 261 265 274
70 66 62 61 58 55 55 55 55 56 58 55 51 48 48 45 41 36 33 26 18 11 7 358 351 347 340 333 324 318 324 338 353 348 321 289 270 282 288 281 273 272 271 276
61 53 57 58 60 57 52 53 53 54 56 55 54 53 49 44 39 33 27 32 23 19 19 13 10 357 345 341 332 324 319 312 314 322 333 315 291 272 270 278 274 270 269 268
50 30 39 38 40 49 49 50 49 47 45 44 49 49 45 43 38 39 30 32 26 31 28 16 14 8 7 2 1 352 338 327 319 314 316 317 318 292 292 273 268 276 270 266
77 62 49 33 11 352 9 28 36 34 41 46 40 36 38 42 37 31 29 27 25 26 22 19 18 13 16 15 17 12 2 357 347 328 325 327 318 315 299 292 274 260 267 279
35 27 29 23 18 18 355 320 325 328 353 7 15 26 29 28 28 28 29 24 21 23 20 16 13 9 13 17 13 7 1 352 343 350 339 335 328 326 317 302 283 272 268 261
15 9 16 19 17 8 2 359 353 344 301 290 337 354 7 16 16 14 16 18 18 19 14 11 11 10 8 10 9 8 5 353 346 344 344 342 343 331 328 331 311 275 260 257
Wind_Speed_850mb
18 24 16 16 18 9 17 15 29 29 20 27 24 27 37 34 27 19 29 40 53 58 56 60 61 58 56 57 61 61 63 65 61 53 54 51 46 38 36 36 32 29 32 28
12 19 13 19 18 18 16 11 17 12 14 11 36 28 27 36 29 18 30 39 49 58 59 57 57 54 50 53 54 54 56 58 61 60 55 49 46 44 39 37 30 29 29 23
9 8 11 16 21 16 12 9 6 13 5 27 29 31 37 45 33 19 11 22 38 51 55 49 47 47 49 48 50 53 51 52 50 52 50 50 47 48 43 37 31 29 26 22
8 4 15 9 10 2 21 15 12 13 20 25 34 38 36 22 26 25 20 9 18 42 50 57 46 41 44 47 49 50 51 52 51 51 49 49 50 48 43 35 34 28 26 21
9 17 4 9 7 5 1 8 20 22 25 32 38 31 9 31 27 25 27 23 13 21 47 51 51 47 44 48 50 51 54 56 54 51 51 51 48 45 40 36 34 28 25 20
6 14 21 10 12 10 5 10 26 28 28 33 34 12 6 40 36 28 22 20 11 11 22 42 49 53 51 54 54 55 56 56 51 48 49 46 43 41 36 34 30 29 24 21
19 11 4 14 20 5 14 6 29 29 29 27 10 13 30 28 24 22 21 14 5 5 13 21 32 44 51 54 55 52 50 49 47 45 43 42 42 39 36 35 33 30 26 24
13 12 15 27 6 9 8 12 19 25 25 20 19 21 21 24 27 26 25 17 6 4 19 27 32 36 42 45 49 50 51 49 48 45 44 43 40 39 37 35 34 34 33 30
10 3 8 14 21 8 7 9 17 20 25 24 29 32 30 30 30 29 29 29 21 13 16 27 34 36 40 46 47 49 51 48 41 39 39 37 37 37 38 38 40 39 37 38
9 6 13 24 20 17 15 17 19 22 29 41 38 37 39 38 39 36 31 33 30 24 25 25 29 36 35 39 45 45 44 41 37 35 36 37 38 39 39 40 41 42 43 46
3 8 10 17 25 21 18 21 27 31 37 43 45 45 43 45 47 46 36 33 31 30 34 25 20 32 35 39 40 42 38 36 35 36 36 36 38 39 40 37 37 33 40 41
4 9 8 14 20 23 20 22 28 26 32 39 42 43 43 53 52 47 47 41 39 35 33 30 26 18 25 34 36 37 39 39 36 34 36 37 35 35 34 31 30 30 29 24
4 3 5 14 12 22 23 24 29 30 29 36 41 44 47 48 48 49 47 47 48 46 42 37 34 20 22 27 31 31 29 30 30 29 26 27 29 32 33 34 33 32 33 38
15 11 12 26 15 23 18 23 30 31 30 34 37 41 46 48 45 47 49 46 41 38 40 38 29 31 22 26 25 25 25 22 19 17 17 17 20 25 30 33 37 40 39 45
25 23 17 14 20 23 18 13 17 31 32 30 33 37 40 45 46 46 43 40 38 40 33 36 34 29 28 30 27 23 17 15 15 12 11 10 14 20 26 32 38 35 41 48
23 25 23 24 22 24 25 24 20 20 24 25 26 29 31 32 34 38 41 42 44 46 43 36 26 34 31 26 20 22 17 10 8 7 3 2 2 7 11 22 29 34 44 50
26 30 25 22 21 19 22 21 21 18 14 18 18 20 16 19 22 27 34 36 37 37 37 36 35 31 34 19 7 8 12 7 9 12 9 8 9 14 16 19 27 35 48 54
29 23 21 18 15 14 17 21 19 18 21 18 16 16 16 18 22 24 25 26 24 23 29 33 34 34 28 21 12 9 4 4 5 7 14 16 15 22 25 34 42 42 36 46
39 43 38 33 24 19 19 21 21 18 16 19 21 21 20 21 20 21 22 24 23 20 22 24 25 26 24 20 16 11 3 3 4 10 13 13 16 18 29 35 39 40 44 47
44 46 47 45 44 43 40 38 34 30 27 22 21 20 20 22 22 20 23 26 31 30 28 27 27 19 17 17 17 14 12 5 4 2 9 12 19 17 22 25 30 35 37 44
42 44 48 50 51 50 47 42 40 44 40 35 32 34 35 32 26 24 23 24 26 23 21 20 19 20 17 16 17 19 18 15 13 11 11 9 8 13 19 21 25 30 31 36
25 28 32 37 42 46 51 51 47 43 40 40 40 38 39 43 40 31 36 34 32 32 26 25 24 22 20 20 19 18 18 18 17 16 13 12 14 11 20 26 28 31 31 34
15 15 15 19 26 30 34 42 45 48 48 48 48 46 45 44 44 40 39 45 39 34 34 34 35 29 24 22 20 20 19 18 18 19 21 19 17 25 26 26 37 40 41 35
8 11 11 10 12 14 18 24 28 31 34 37 39 42 43 42 41 46 41 42 39 35 32 34 35 35 33 29 26 24 23 22 21 20 20 22 23 23 27 35 42 37 45 50
17 18 19 18 15 7 6 8 13 16 20 24 29 34 34 36 39 42 46 47 46 46 40 38 34 31 33 32 32 32 30 30 29 26 23 23 25 25 26 30 30 37 44 41
14 17 16 13 14 16 6 6 8 9 10 12 14 21 25 27 33 38 41 43 45 50 44 41 39 36 31 31 30 27 28 29 28 32 28 26 23 28 27 24 26 33 39 48
16 16 14 13 12 12 16 19 21 20 14 9 11 17 19 21 25 32 38 44 47 47 47 43 37 42 41 37 32 29 27 25 27 30 31 32 32 28 29 29 21 22 30 42
Wind_Direction_850mb
281 281 270 268 273 252 222 238 229 237 225 268 316 319 313 315 315 230 210 196 197 202 203 211 213 212 217 218 217 220 220 219 217 220 223 224 226 233 235 239 249 263 273 281
287 291 267 263 263 259 250 260 263 264 262 3 319 318 340 354 339 267 220 205 202 203 203 206 208 207 209 215 215 216 219 217 216 222 226 225 223 225 227 234 243 254 264 267
256 343 306 255 248 231 130 78 296 239 350 334 318 330 333 336 339 360 274 233 216 214 209 206 207 210 210 209 211 209 207 210 212 215 216 218 218 222 224 229 235 242 249 250
270 297 231 73 53 190 124 73 14 320 328 324 308 304 305 338 337 334 359 332 234 227 229 222 208 205 205 208 206 203 201 202 202 207 210 214 216 218 222 223 228 233 236 237
249 213 16 226 32 61 305 95 24 347 340 334 322 311 221 346 347 339 335 333 313 245 229 231 221 210 202 204 201 199 197 196 197 201 207 210 212 213 215 215 224 227 229 226
284 227 212 88 341 347 272 189 11 354 343 337 331 218 81 346 346 340 333 322 328 276 217 218 223 221 204 200 198 194 191 189 192 198 206 207 205 206 206 216 221 221 221 215
235 268 224 11 325 224 198 71 339 346 346 342 348 330 315 340 353 1 356 340 328 239 193 193 207 217 207 195 189 183 180 184 188 193 193 193 197 201 208 215 220 219 214 208
216 239 217 6 155 222 21 344 347 358 9 10 2 5 4 4 15 22 32 34 59 172 192 189 192 196 197 186 176 176 172 178 180 181 188 195 200 206 214 218 221 220 212 202
235 1 58 64 78 49 2 356 13 26 31 47 32 30 24 25 35 40 45 47 59 91 163 172 172 177 182 178 171 174 167 174 182 189 197 203 210 215 220 223 224 221 214 208
188 178 101 75 74 51 45 65 63 54 56 59 50 36 32 34 41 54 59 62 67 87 121 144 165 172 176 177 178 180 179 182 189 197 204 209 215 222 228 229 228 222 217 209
260 164 217 62 44 34 49 70 72 63 66 66 59 46 36 34 44 49 58 67 70 80 96 111 139 162 170 173 178 179 180 188 194 201 205 212 218 224 230 232 235 236 225 221
146 8 351 51 21 24 33 40 64 59 59 63 62 53 44 41 42 49 49 50 57 64 76 87 94 101 151 163 171 174 177 183 191 198 207 215 223 228 227 227 221 216 224 229
49 331 21 9 46 22 26 46 62 57 61 69 63 58 50 45 43 47 51 47 48 53 56 69 94 142 133 147 154 163 177 183 188 199 207 211 212 215 218 212 206 194 206 217
52 116 62 37 12 17 26 44 56 57 60 68 65 60 53 47 43 44 44 42 40 48 56 63 67 72 105 127 140 149 153 158 163 173 182 195 205 209 217 222 207 194 202 219
61 66 58 34 35 34 33 43 42 48 45 58 60 56 51 46 44 43 45 46 42 45 47 64 65 70 80 116 129 130 136 150 155 164 179 201 215 225 220 227 224 214 212 214
64 57 46 36 20 26 30 30 35 25 36 36 54 61 58 52 47 43 43 42 43 41 36 42 49 43 57 91 113 132 125 125 140 145 135 89 340 244 247 235 239 236 226 216
54 45 41 32 22 16 20 31 29 17 19 31 44 53 57 59 51 43 39 38 41 43 40 37 37 37 49 55 86 125 160 161 186 212 204 213 223 255 250 258 260 246 237 225
51 55 44 36 32 24 26 22 29 31 30 32 41 53 40 43 44 42 38 29 26 34 38 41 40 34 30 26 30 57 97 190 224 238 234 243 235 244 257 259 252 247 241 237
54 57 57 58 58 53 48 35 35 40 46 43 43 44 34 37 36 30 24 17 14 17 18 28 35 35 33 28 20 13 57 37 239 234 250 258 248 255 252 258 262 259 251 241
60 63 66 65 63 61 58 55 54 53 50 49 49 45 40 32 24 20 15 14 13 4 358 357 11 355 1 14 20 27 18 349 257 304 307 289 269 250 257 268 264 262 256 260
64 63 65 64 63 61 57 54 53 54 52 52 53 49 43 33 26 18 15 11 3 1 0 355 341 336 333 336 348 353 3 7 356 337 272 288 325 289 273 279 267 261 265 274
70 66 62 61 58 55 55 55 55 56 58 55 51 48 48 45 41 36 33 26 18 11 7 358 351 347 340 333 324 318 324 338 353 348 321 289 270 282 288 281 273 272 271 276
61 53 57 58 60 57 52 53 53 54 56 55 54 53 49 44 39 33 27 32 23 19 19 13 10 357 345 341 332 324 319 312 314 322 333 315 291 272 270 278 274 270 269 268
50 30 39 38 40 49 49 50 49 47 45 44 49 49 45 43 38 39 30 32 26 31 28 16 14 8 7 2 1 352 338 327 319 314 316 317 318 292 292 273 268 276 270 266
77 62 49 33 11 352 9 28 36 34 41 46 40 36 38 42 37 31 29 27 25 26 22 19 18 13 16 15 17 12 2 357 347 328 325 327 318 315 299 292 274 260 267 279
35 27 29 23 18 18 355 320 325 328 353 7 15 26 29 28 28 28 29 24 21 23 20 16 13 9 13 17 13 7 1 352 343 350 339 335 328 326 317 302 283 272 268 261
15 9 16 19 17 8 2 359 353 344 301 290 337 354 7 16 16 14 16 18 18 19 14 11 11 10 8 10 9 8 5 353 346 344 344 342 343 331 328 331 311 275 260 257